User: anonymous   Login
Location: Unspecified
(0.0000°N, 0.0000°E)
Time: 09:15:37
(UTC+00:00)
Language:

LEMUR 2 NICK-ALLAIN - Orbit

View from above orbital plane
View from above orbital plane
View from above satellite
View from above satellite

Ground track
Ground track

The orbit data is extracted from the following two-line orbital elements,

1 41488U 98067JJ  17086.77010755 +.00503773 +12639-3 +80881-3 0  9996
2 41488 051.6275 049.3743 0003865 118.5337 311.3300 16.02977738049175
Epoch (UTC): 27 March 2017 18:28:57
Eccentricity: 0.0003865
inclination: 51.6275°
perigee height: 263 km
apogee height: 269 km
right ascension of ascending node: 49.3743°
argument of perigee: 118.5337°
revolutions per day: 16.02977738
mean anomaly at epoch: 311.3300°
orbit number at epoch: 4917

The dashed part of the orbit path shows where the satellite is in the earth's shadow,  

DLR